Lid_Strength_Index
6 6 6 6 6 6 6 6 6 6 3 1 1 2 3 3 4 4 5 5 5 6
7 6 6 6 6 6 6 6 6 6 6 5 3 1 2 2 4 4 5 5 5 6
9 8 8 7 7 7 7 7 7 7 7 7 6 5 3 3 3 4 4 5 6 6
9 9 9 8 8 8 8 8 8 8 7 7 7 7 6 5 4 4 5 5 6 6
9 9 9 9 8 8 8 8 8 8 8 8 8 8 8 7 6 6 6 6 6 6
10 10 10 9 9 9 9 9 10 10 10 9 9 8 7 6 6 6 6 6 7 7
11 11 11 11 11 11 11 11 11 11 11 11 10 9 7 7 7 7 7 7 7 8
12 13 13 13 13 13 13 12 12 13 13 13 12 10 9 9 8 9 8 9 10 10
14 14 14 14 14 14 14 13 13 13 13 13 12 10 9 9 11 11 11 10 11 11
15 15 15 15 15 14 14 14 14 14 14 14 14 11 10 9 10 11 11 11 11 12
15 16 16 16 16 15 15 14 15 15 15 16 14 11 10 9 11 11 12 12 12 12
15 16 16 16 16 16 16 16 16 15 16 17 15 10 10 9 11 11 12 13 13 13
16 17 17 16 16 17 18 15 15 15 17 17 13 11 10 10 11 12 13 13 13 13
16 17 17 17 17 17 17 17 18 17 18 17 14 13 11 9 12 12 13 13 13 12